| time (UTC) | temp F | wind direction | speed MPH | gust MPH | rain 1hr in | rain 24hr in | rain mn in | humidity % | barometer mb |
| 20260502193505 | 52 | 321 | 4.0 | 7.0 | 0.19 | 0.52 | 0.52 | 94 | 1011.5 |
| 20260502192505 | 53 | 329 | 5.0 | 6.0 | 0.20 | 0.50 | 0.50 | 93 | 1011.4 |
| 20260502191503 | 53 | 311 | 6.0 | 9.0 | 0.20 | 0.48 | 0.48 | 93 | 1011.6 |
| 20260502191005 | 53 | 314 | 5.0 | 9.0 | 0.17 | 0.44 | 0.44 | 93 | 1011.6 |
| 20260502190503 | 53 | 319 | 4.0 | 6.0 | 0.15 | 0.42 | 0.42 | 93 | 1011.7 |
| 20260502190005 | 53 | 328 | 3.0 | 6.0 | 0.13 | 0.40 | 0.40 | 93 | 1011.7 |
| 20260502185508 | 53 | 343 | 3.0 | 6.0 | 0.13 | 0.39 | 0.39 | 93 | 1011.8 |
| 20260502185006 | 54 | 357 | 3.0 | 5.0 | 0.13 | 0.38 | 0.38 | 92 | 1011.7 |
| 20260502183003 | 54 | 42 | 2.0 | 6.0 | 0.09 | 0.32 | 0.32 | 92 | 1011.7 |
| 20260502182503 | 54 | 29 | 2.0 | 6.0 | 0.10 | 0.31 | 0.31 | 92 | 1011.6 |
| 20260502181503 | 54 | 8 | 2.0 | 4.0 | 0.11 | 0.28 | 0.28 | 92 | 1011.6 |
| 20260502181004 | 55 | 355 | 3.0 | 9.0 | 0.11 | 0.28 | 0.28 | 92 | 1011.6 |
| 20260502180504 | 55 | 345 | 4.0 | 9.0 | 0.10 | 0.27 | 0.27 | 92 | 1011.6 |
| 20260502170503 | 56 | 271 | 2.0 | 4.0 | 0.16 | 0.17 | 0.17 | 87 | 1012.5 |
| 20260502164005 | 59 | 307 | 1.0 | 3.0 | 0.09 | 0.09 | 0.09 | 82 | 1013.0 |
| 20260502162505 | 60 | 329 | 0.0 | 1.0 | 0.05 | 0.06 | 0.06 | 79 | 1013.0 |
| 20260502162004 | 60 | 329 | 0.0 | 1.0 | 0.03 | 0.04 | 0.04 | 78 | 1013.0 |
| 20260502161503 | 60 | 329 | 0.0 | 1.0 | 0.02 | 0.03 | 0.03 | 77 | 1013.1 |
| 20260502160505 | 61 | 329 | 0.0 | 1.0 | 0.00 | 0.01 | 0.01 | 75 | 1013.0 |
| 20260502152003 | 62 | 14 | 3.0 | 4.0 | 0.00 | 0.01 | 0.01 | 69 | 1012.9 |
| 20260502151504 | 62 | 14 | 2.0 | 4.0 | 0.00 | 0.01 | 0.01 | 68 | 1012.9 |
| 20260502151004 | 62 | 14 | 2.0 | 4.0 | 0.00 | 0.01 | 0.01 | 68 | 1013.1 |
| 20260502150503 | 62 | 14 | 1.0 | 4.0 | 0.00 | 0.01 | 0.01 | 68 | 1013.2 |
| 20260502130505 | 63 | 314 | 2.0 | 5.0 | 0.00 | 0.06 | 0.01 | 66 | 1014.7 |
| 20260502123004 | 63 | 77 | 2.0 | 7.0 | 0.00 | 0.06 | 0.01 | 67 | 1015.1 |
| 20260502122503 | 63 | 93 | 2.0 | 5.0 | 0.00 | 0.06 | 0.01 | 67 | 1015.3 |
| 20260502121504 | 63 | 141 | 2.0 | 5.0 | 0.00 | 0.06 | 0.01 | 67 | 1015.4 |
| 20260502115505 | 62 | 29 | 2.0 | 4.0 | 0.00 | 0.06 | 0.01 | 69 | 1015.7 |
| 20260502114006 | 61 | 220 | 2.0 | 4.0 | 0.00 | 0.06 | 0.01 | 69 | 1016.0 |
| 20260502112504 | 60 | 256 | 3.0 | 8.0 | 0.00 | 0.06 | 0.01 | 70 | 1016.3 |
| 20260502112005 | 60 | 264 | 4.0 | 8.0 | 0.00 | 0.06 | 0.01 | 69 | 1016.3 |
| 20260502111503 | 60 | 259 | 3.0 | 8.0 | 0.00 | 0.06 | 0.01 | 69 | 1016.5 |
| 20260502111003 | 60 | 244 | 3.0 | 8.0 | 0.00 | 0.06 | 0.01 | 69 | 1016.6 |
| 20260502110504 | 61 | 243 | 3.0 | 8.0 | 0.00 | 0.06 | 0.01 | 68 | 1016.6 |
| 20260502110004 | 61 | 231 | 2.0 | 8.0 | 0.00 | 0.06 | 0.01 | 68 | 1016.6 |
| 20260502105004 | 61 | 202 | 2.0 | 9.0 | 0.00 | 0.06 | 0.01 | 70 | 1016.5 |
| 20260502104505 | 60 | 221 | 2.0 | 9.0 | 0.00 | 0.06 | 0.01 | 71 | 1016.5 |
| 20260502103505 | 60 | 222 | 4.0 | 10.0 | 0.00 | 0.06 | 0.01 | 71 | 1016.7 |
| 20260502102503 | 59 | 261 | 2.0 | 7.0 | 0.00 | 0.06 | 0.01 | 73 | 1016.8 |
| 20260502102004 | 59 | 254 | 3.0 | 8.0 | 0.00 | 0.06 | 0.01 | 74 | 1016.9 |
| 20260502101503 | 59 | 255 | 3.0 | 8.0 | 0.00 | 0.06 | 0.01 | 74 | 1017.0 |
| 20260502100503 | 58 | 213 | 2.0 | 5.0 | 0.00 | 0.06 | 0.01 | 76 | 1016.9 |
| 20260502091503 | 56 | 331 | 2.0 | 4.0 | 0.00 | 0.06 | 0.01 | 89 | 1017.3 |
| 20260502090504 | 54 | 246 | 2.0 | 4.0 | 0.00 | 0.06 | 0.01 | 91 | 1017.5 |
| 20260502071004 | 46 | 0 | 0.0 | 0.0 | 0.00 | 0.06 | 0.00 | 96 | 1017.9 |
| 20260502070008 | 45 | 0 | 0.0 | 1.0 | 0.00 | 0.06 | 0.00 | 96 | 1017.9 |
| 20260502065503 | 44 | 16 | 0.0 | 1.0 | 0.00 | 0.06 | 0.00 | 97 | 1018.0 |
| 20260502064505 | 44 | 16 | 0.0 | 1.0 | 0.00 | 0.06 | 0.00 | 96 | 1018.0 |
| 20260502062503 | 44 | 0 | 0.0 | 1.0 | 0.00 | 0.06 | 0.00 | 96 | 1018.1 |
| 20260502060506 | 43 | 16 | 1.0 | 2.0 | 0.00 | 0.06 | 0.00 | 96 | 1018.0 |
| 20260502055503 | 43 | 16 | 0.0 | 2.0 | 0.00 | 0.06 | 0.00 | 96 | 1017.9 |
| 20260502054505 | 42 | 16 | 0.0 | 1.0 | 0.00 | 0.06 | 0.00 | 95 | 1017.9 |
| 20260502053503 | 43 | 16 | 0.0 | 1.0 | 0.00 | 0.06 | 0.00 | 95 | 1017.8 |
| 20260502053003 | 43 | 16 | 0.0 | 1.0 | 0.00 | 0.06 | 0.00 | 95 | 1017.7 |
| 20260502052505 | 43 | 49 | 1.0 | 3.0 | 0.00 | 0.06 | 0.00 | 95 | 1017.7 |
| 20260502052004 | 43 | 61 | 0.0 | 3.0 | 0.00 | 0.06 | 0.00 | 95 | 1017.7 |
| 20260502051504 | 43 | 0 | 0.0 | 1.0 | 0.00 | 0.06 | 0.00 | 95 | 1017.7 |
| 20260502050503 | 44 | 87 | 1.0 | 2.0 | 0.00 | 0.06 | 0.00 | 95 | 1017.7 |
| 20260502050005 | 44 | 87 | 2.0 | 3.0 | 0.00 | 0.06 | 0.00 | 95 | 1017.7 |
| 20260502045006 | 44 | 75 | 2.0 | 3.0 | 0.00 | 0.06 | 0.00 | 96 | 1017.6 |
| 20260502042003 | 42 | 70 | 2.0 | 3.0 | 0.00 | 0.06 | 0.00 | 95 | 1017.8 |
| 20260502041504 | 42 | 76 | 2.0 | 4.0 | 0.00 | 0.06 | 0.00 | 95 | 1017.9 |
| 20260502040503 | 43 | 304 | 1.0 | 3.0 | 0.00 | 0.06 | 0.00 | 94 | 1018.1 |
| 20260502040004 | 43 | 288 | 1.0 | 2.0 | 0.00 | 0.06 | 0.00 | 95 | 1018.2 |
| 20260502035503 | 43 | 286 | 0.0 | 2.0 | 0.00 | 0.06 | 0.00 | 95 | 1018.1 |
| 20260502034504 | 43 | 0 | 0.0 | 0.0 | 0.00 | 0.06 | 0.00 | 95 | 1018.2 |
| 20260502033504 | 43 | 286 | 1.0 | 2.0 | 0.00 | 0.06 | 0.00 | 95 | 1018.2 |
| 20260502033003 | 43 | 286 | 0.0 | 1.0 | 0.00 | 0.06 | 0.00 | 94 | 1018.3 |
| 20260502032503 | 43 | 286 | 0.0 | 1.0 | 0.00 | 0.06 | 0.00 | 94 | 1018.2 |
| 20260502030503 | 44 | 286 | 1.0 | 2.0 | 0.00 | 0.06 | 0.00 | 94 | 1018.3 |
| 20260502030004 | 44 | 286 | 0.0 | 2.0 | 0.00 | 0.06 | 0.00 | 94 | 1018.3 |
| 20260502025503 | 45 | 286 | 0.0 | 1.0 | 0.00 | 0.06 | 0.00 | 94 | 1018.4 |
| 20260502024504 | 45 | 0 | 0.0 | 0.0 | 0.00 | 0.06 | 0.00 | 94 | 1018.2 |
| 20260502024004 | 45 | 286 | 0.0 | 1.0 | 0.00 | 0.06 | 0.00 | 94 | 1018.2 |
| 20260502023504 | 45 | 286 | 0.0 | 1.0 | 0.00 | 0.06 | 0.00 | 94 | 1018.3 |
| 20260502023004 | 45 | 286 | 0.0 | 1.0 | 0.00 | 0.06 | 0.00 | 94 | 1018.3 |
| 20260502022503 | 45 | 286 | 1.0 | 2.0 | 0.00 | 0.06 | 0.00 | 94 | 1018.4 |
| 20260502022003 | 45 | 286 | 1.0 | 2.0 | 0.00 | 0.06 | 0.00 | 94 | 1018.4 |
| 20260502020503 | 45 | 286 | 0.0 | 1.0 | 0.00 | 0.06 | 0.00 | 94 | 1018.6 |
| 20260502020003 | 45 | 286 | 0.0 | 1.0 | 0.00 | 0.06 | 0.00 | 94 | 1018.5 |
| 20260502015503 | 45 | 286 | 0.0 | 1.0 | 0.00 | 0.06 | 0.00 | 94 | 1018.5 |
| 20260502015004 | 45 | 286 | 0.0 | 1.0 | 0.00 | 0.06 | 0.00 | 94 | 1018.6 |
| 20260502014503 | 45 | 286 | 1.0 | 2.0 | 0.00 | 0.06 | 0.00 | 94 | 1018.6 |
| 20260502014003 | 46 | 286 | 1.0 | 2.0 | 0.00 | 0.06 | 0.00 | 94 | 1018.7 |
| 20260502013503 | 46 | 286 | 0.0 | 1.0 | 0.00 | 0.06 | 0.00 | 93 | 1018.6 |
| 20260502013004 | 46 | 286 | 0.0 | 2.0 | 0.00 | 0.06 | 0.00 | 94 | 1018.7 |
| 20260502012503 | 46 | 286 | 1.0 | 2.0 | 0.00 | 0.06 | 0.00 | 93 | 1018.8 |
| 20260502012003 | 46 | 284 | 2.0 | 2.0 | 0.00 | 0.06 | 0.00 | 93 | 1018.9 |
| 20260502011503 | 47 | 267 | 1.0 | 2.0 | 0.00 | 0.06 | 0.00 | 93 | 1018.9 |
| 20260502011004 | 47 | 278 | 1.0 | 3.0 | 0.00 | 0.06 | 0.00 | 93 | 1019.0 |
| 20260502010503 | 47 | 319 | 2.0 | 3.0 | 0.00 | 0.06 | 0.00 | 94 | 1018.9 |
| 20260502010003 | 47 | 326 | 3.0 | 4.0 | 0.00 | 0.06 | 0.00 | 94 | 1019.0 |
| 20260502005503 | 47 | 313 | 3.0 | 4.0 | 0.00 | 0.06 | 0.00 | 94 | 1019.0 |
| 20260502004003 | 47 | 285 | 0.0 | 2.0 | 0.00 | 0.06 | 0.00 | 93 | 1019.2 |
| 20260502003503 | 47 | 0 | 0.0 | 0.0 | 0.00 | 0.06 | 0.00 | 93 | 1019.2 |
| 20260502003004 | 48 | 0 | 0.0 | 0.0 | 0.00 | 0.06 | 0.00 | 93 | 1019.2 |
| 20260502002003 | 48 | 0 | 0.0 | 0.0 | 0.00 | 0.06 | 0.00 | 93 | 1019.3 |
| 20260502001003 | 48 | 0 | 0.0 | 0.0 | 0.00 | 0.06 | 0.00 | 94 | 1019.3 |
| 20260502000504 | 48 | 0 | 0.0 | 2.0 | 0.00 | 0.06 | 0.00 | 94 | 1019.3 |
| 20260502000003 | 48 | 285 | 0.0 | 2.0 | 0.00 | 0.06 | 0.00 | 93 | 1019.4 |
| 20260501235003 | 49 | 211 | 1.0 | 3.0 | 0.00 | 0.06 | 0.00 | 93 | 1019.5 |
| 20260501234004 | 49 | 171 | 1.0 | 4.0 | 0.00 | 0.06 | 0.00 | 93 | 1019.6 |
| 20260501233503 | 49 | 171 | 0.0 | 4.0 | 0.00 | 0.06 | 0.00 | 93 | 1019.5 |
| 20260501232503 | 49 | 0 | 0.0 | 0.0 | 0.00 | 0.06 | 0.00 | 93 | 1019.6 |
| 20260501232006 | 49 | 0 | 0.0 | 0.0 | 0.00 | 0.06 | 0.00 | 93 | 1019.7 |
| 20260501231503 | 49 | 0 | 0.0 | 0.0 | 0.00 | 0.06 | 0.00 | 92 | 1019.7 |
| 20260501230505 | 50 | 171 | 0.0 | 2.0 | 0.00 | 0.06 | 0.00 | 92 | 1019.6 |
| 20260501225004 | 50 | 171 | 1.0 | 2.0 | 0.00 | 0.06 | 0.06 | 92 | 1019.5 |
| 20260501224503 | 50 | 171 | 2.0 | 4.0 | 0.00 | 0.06 | 0.06 | 92 | 1019.5 |
| 20260501223503 | 50 | 171 | 1.0 | 4.0 | 0.00 | 0.06 | 0.06 | 92 | 1019.5 |
| 20260501222504 | 51 | 171 | 1.0 | 4.0 | 0.00 | 0.06 | 0.06 | 92 | 1019.5 |
| 20260501221503 | 51 | 171 | 1.0 | 2.0 | 0.00 | 0.06 | 0.06 | 92 | 1019.5 |
| 20260501221003 | 51 | 171 | 1.0 | 2.0 | 0.00 | 0.06 | 0.06 | 92 | 1019.4 |
| 20260501220003 | 51 | 171 | 1.0 | 2.0 | 0.00 | 0.06 | 0.06 | 92 | 1019.4 |
| 20260501214005 | 52 | 171 | 1.0 | 1.0 | 0.00 | 0.06 | 0.06 | 92 | 1019.4 |
| 20260501213504 | 52 | 171 | 0.0 | 2.0 | 0.00 | 0.06 | 0.06 | 92 | 1019.4 |
| 20260501212004 | 53 | 171 | 1.0 | 2.0 | 0.00 | 0.06 | 0.06 | 91 | 1019.4 |
| 20260501211503 | 53 | 171 | 1.0 | 2.0 | 0.00 | 0.06 | 0.06 | 91 | 1019.4 |
| 20260501211005 | 53 | 171 | 1.0 | 2.0 | 0.00 | 0.06 | 0.06 | 91 | 1019.4 |
| 20260501205504 | 54 | 171 | 1.0 | 2.0 | 0.00 | 0.06 | 0.06 | 91 | 1019.4 |
| 20260501205003 | 54 | 171 | 1.0 | 2.0 | 0.00 | 0.06 | 0.06 | 91 | 1019.4 |
| 20260501204503 | 54 | 171 | 1.0 | 2.0 | 0.00 | 0.06 | 0.06 | 90 | 1019.4 |
| 20260501203503 | 54 | 171 | 0.0 | 3.0 | 0.00 | 0.06 | 0.06 | 90 | 1019.3 |
| 20260501203003 | 55 | 171 | 1.0 | 4.0 | 0.00 | 0.06 | 0.06 | 90 | 1019.3 |
| 20260501202504 | 55 | 171 | 2.0 | 4.0 | 0.00 | 0.06 | 0.06 | 90 | 1019.3 |
| 20260501202003 | 55 | 171 | 1.0 | 3.0 | 0.00 | 0.06 | 0.06 | 90 | 1019.1 |
| 20260501201003 | 56 | 171 | 1.0 | 2.0 | 0.00 | 0.06 | 0.06 | 90 | 1019.2 |
| 20260501195503 | 56 | 171 | 1.0 | 4.0 | 0.00 | 0.06 | 0.06 | 89 | 1019.2 |
| 20260501195004 | 56 | 171 | 1.0 | 4.0 | 0.00 | 0.06 | 0.06 | 89 | 1019.2 |